TimeEDT,TemperatureF,Dew PointF,Humidity,Sea Level PressureIn,VisibilityMPH,Wind Direction,Wind SpeedMPH,Gust SpeedMPH,PrecipitationIn,Events,Conditions,WindDirDegrees,DateUTC
12:15 AM,44.6,32.0,61,30.08,10.0,Calm,Calm,-,N/A,,Clear,0,2013-03-31 04:15:00
12:35 AM,44.6,33.8,66,30.08,10.0,Calm,Calm,-,N/A,,Clear,0,2013-03-31 04:35:00
12:55 AM,44.6,33.8,66,30.07,10.0,Calm,Calm,-,N/A,,Clear,0,2013-03-31 04:55:00
1:15 AM,44.6,33.8,66,30.06,10.0,Calm,Calm,-,N/A,,Clear,0,2013-03-31 05:15:00
1:35 AM,44.6,35.6,71,30.05,10.0,Calm,Calm,-,N/A,,Scattered Clouds,0,2013-03-31 05:35:00
1:55 AM,44.6,35.6,71,30.04,10.0,Calm,Calm,-,N/A,,Scattered Clouds,0,2013-03-31 05:55:00
2:15 AM,46.4,35.6,66,30.03,10.0,Calm,Calm,-,N/A,,Scattered Clouds,0,2013-03-31 06:15:00
2:35 AM,44.6,33.8,66,30.03,10.0,Calm,Calm,-,N/A,,Clear,0,2013-03-31 06:35:00
2:55 AM,44.6,35.6,71,30.02,10.0,Calm,Calm,-,N/A,,Clear,0,2013-03-31 06:55:00
3:15 AM,44.6,33.8,66,30.01,10.0,Calm,Calm,-,N/A,,Clear,0,2013-03-31 07:15:00
3:35 AM,44.6,35.6,71,30.01,10.0,Calm,Calm,-,N/A,,Mostly Cloudy,0,2013-03-31 07:35:00
3:55 AM,44.6,35.6,71,30.00,10.0,Calm,Calm,-,N/A,,Scattered Clouds,0,2013-03-31 07:55:00
4:15 AM,44.6,35.6,71,30.00,10.0,Calm,Calm,-,N/A,,Mostly Cloudy,0,2013-03-31 08:15:00
4:35 AM,46.4,37.4,71,29.99,10.0,Calm,Calm,-,N/A,,Drizzle,0,2013-03-31 08:35:00
4:55 AM,48.2,44.6,87,29.99,7.0,SW,4.6,-,N/A,Rain,Rain,220,2013-03-31 08:55:00
5:15 AM,48.2,46.4,93,29.98,5.0,Calm,Calm,-,0.03,Rain,Rain,0,2013-03-31 09:15:00
5:35 AM,46.4,46.4,100,29.97,4.0,Calm,Calm,-,0.07,Rain,Rain,0,2013-03-31 09:35:00
5:55 AM,46.4,46.4,100,29.97,3.0,Calm,Calm,-,0.13,Rain,Rain,0,2013-03-31 09:55:00
6:15 AM,46.4,46.4,100,29.96,4.0,Calm,Calm,-,0.06,Rain,Rain,0,2013-03-31 10:15:00
6:35 AM,46.4,46.4,100,29.96,3.0,Calm,Calm,-,0.10,Rain,Rain,0,2013-03-31 10:35:00
6:55 AM,46.4,46.4,100,29.95,4.0,East,3.5,-,0.12,Rain,Rain,90,2013-03-31 10:55:00
7:15 AM,44.6,44.6,100,29.94,5.0,East,5.8,-,0.01,,Drizzle,90,2013-03-31 11:15:00
7:35 AM,44.6,44.6,100,29.93,5.0,East,3.5,-,0.01,,Light Drizzle,100,2013-03-31 11:35:00
7:55 AM,44.6,44.6,100,29.93,5.0,Calm,Calm,-,0.01,,Drizzle,0,2013-03-31 11:55:00
8:15 AM,44.6,44.6,100,29.93,3.0,Calm,Calm,-,0.01,Rain,Rain,0,2013-03-31 12:15:00
8:35 AM,46.4,46.4,100,29.92,1.8,Calm,Calm,-,0.04,Rain,Rain,0,2013-03-31 12:35:00
8:55 AM,44.6,44.6,100,29.92,2.5,Calm,Calm,-,0.11,Rain,Rain,0,2013-03-31 12:55:00
9:15 AM,46.4,46.4,100,29.91,2.0,Calm,Calm,-,0.03,Rain,Rain,0,2013-03-31 13:15:00
9:35 AM,46.4,46.4,100,29.91,2.0,Calm,Calm,-,0.05,Rain,Rain,0,2013-03-31 13:35:00
9:55 AM,46.4,46.4,100,29.89,2.5,ESE,4.6,-,0.06,Rain,Light Rain,120,2013-03-31 13:55:00
10:15 AM,44.6,44.6,100,29.90,2.0,Calm,Calm,-,N/A,Rain,Light Rain,0,2013-03-31 14:15:00
10:35 AM,46.4,46.4,100,29.90,4.0,Calm,Calm,-,0.01,Rain,Light Rain,0,2013-03-31 14:35:00
10:55 AM,46.4,46.4,100,29.89,2.5,Calm,Calm,-,0.01,Rain,Light Rain,0,2013-03-31 14:55:00
11:15 AM,46.4,46.4,100,29.89,4.0,Calm,Calm,-,0.01,,Drizzle,0,2013-03-31 15:15:00
11:35 AM,48.2,48.2,100,29.89,7.0,Calm,Calm,-,0.01,,Overcast,0,2013-03-31 15:35:00
11:55 AM,48.2,48.2,100,29.88,5.0,Calm,Calm,-,0.01,,Overcast,0,2013-03-31 15:55:00
12:15 PM,48.2,48.2,100,29.87,5.0,Calm,Calm,-,N/A,,Overcast,0,2013-03-31 16:15:00
12:35 PM,50.0,50.0,100,29.87,4.0,Calm,Calm,-,N/A,,Overcast,0,2013-03-31 16:35:00
12:55 PM,51.8,51.8,100,29.86,7.0,West,3.5,-,N/A,,Overcast,280,2013-03-31 16:55:00
1:15 PM,55.4,53.6,94,29.85,10.0,West,6.9,-,N/A,,Overcast,270,2013-03-31 17:15:00
1:35 PM,55.4,53.6,94,29.84,10.0,WSW,6.9,-,N/A,,Overcast,240,2013-03-31 17:35:00
1:55 PM,55.4,53.6,94,29.84,10.0,WSW,8.1,-,N/A,,Overcast,250,2013-03-31 17:55:00
2:15 PM,55.4,53.6,94,29.83,10.0,WSW,5.8,-,N/A,,Overcast,240,2013-03-31 18:15:00
2:35 PM,57.2,53.6,88,29.83,10.0,WSW,8.1,-,N/A,,Overcast,240,2013-03-31 18:35:00
2:55 PM,55.4,53.6,94,29.84,10.0,West,6.9,-,N/A,,Overcast,260,2013-03-31 18:55:00
3:15 PM,57.2,53.6,88,29.84,10.0,WSW,8.1,-,N/A,,Overcast,250,2013-03-31 19:15:00
3:35 PM,57.2,53.6,88,29.84,10.0,West,11.5,17.3,N/A,,Overcast,260,2013-03-31 19:35:00
3:55 PM,57.2,51.8,82,29.85,10.0,WSW,12.7,19.6,N/A,,Overcast,250,2013-03-31 19:55:00
4:15 PM,57.2,51.8,82,29.85,10.0,West,9.2,16.1,N/A,,Overcast,270,2013-03-31 20:15:00
4:35 PM,57.2,53.6,88,29.84,10.0,West,5.8,-,N/A,Rain,Light Rain,270,2013-03-31 20:35:00
4:55 PM,55.4,53.6,94,29.84,10.0,West,6.9,-,N/A,Rain,Light Rain,260,2013-03-31 20:55:00
5:15 PM,57.2,53.6,88,29.84,10.0,West,5.8,-,N/A,,Mostly Cloudy,260,2013-03-31 21:15:00
5:35 PM,55.4,51.8,88,29.83,10.0,West,4.6,-,N/A,,Mostly Cloudy,260,2013-03-31 21:35:00
5:55 PM,57.2,51.8,82,29.84,10.0,WSW,9.2,-,N/A,,Scattered Clouds,250,2013-03-31 21:55:00
6:15 PM,57.2,50.0,77,29.83,10.0,WSW,6.9,-,N/A,,Scattered Clouds,250,2013-03-31 22:15:00
6:35 PM,55.4,48.2,77,29.82,10.0,West,6.9,-,N/A,,Mostly Cloudy,270,2013-03-31 22:35:00
6:55 PM,55.4,48.2,77,29.82,10.0,West,4.6,-,N/A,,Scattered Clouds,270,2013-03-31 22:55:00
7:15 PM,55.4,48.2,77,29.82,10.0,West,3.5,-,N/A,,Clear,270,2013-03-31 23:15:00
7:35 PM,55.4,46.4,72,29.83,10.0,West,8.1,-,N/A,,Clear,280,2013-03-31 23:35:00
7:55 PM,53.6,46.4,77,29.84,10.0,West,4.6,-,N/A,,Clear,270,2013-03-31 23:55:00
8:15 PM,51.8,46.4,82,29.84,10.0,WSW,4.6,-,N/A,,Clear,250,2013-04-01 00:15:00
8:35 PM,51.8,46.4,82,29.84,10.0,West,3.5,-,N/A,,Scattered Clouds,260,2013-04-01 00:35:00
8:55 PM,51.8,46.4,82,29.84,10.0,West,4.6,-,N/A,,Mostly Cloudy,280,2013-04-01 00:55:00
9:15 PM,51.8,46.4,82,29.85,10.0,West,3.5,-,N/A,,Mostly Cloudy,270,2013-04-01 01:15:00
9:35 PM,50.0,46.4,87,29.85,10.0,Calm,Calm,-,N/A,,Mostly Cloudy,0,2013-04-01 01:35:00
10:15 PM,46.4,46.4,100,29.86,10.0,WNW,3.5,-,N/A,,Clear,290,2013-04-01 02:15:00
10:35 PM,46.4,46.4,100,29.87,10.0,Calm,Calm,-,N/A,,Mostly Cloudy,0,2013-04-01 02:35:00
11:15 PM,50.0,46.4,87,29.87,10.0,Calm,Calm,-,N/A,,Overcast,0,2013-04-01 03:15:00
11:35 PM,50.0,46.4,87,29.87,10.0,Calm,Calm,-,N/A,,Overcast,0,2013-04-01 03:35:00
11:55 PM,48.2,46.4,93,29.87,10.0,WNW,4.6,-,N/A,,Mostly Cloudy,290,2013-04-01 03:55:00